Regional Weather Roundup
Issued by NWS Jackson, KY

Home | Current Version | Previous Version | Graphics & Text | Print | Product List | Glossary On
Versions: 1 2 3 4 5 6 7 8 9 10 11 12 13 14 15 16 17 18 19 20 21 22 23 24 25 26 27 28 29 30 31 32 33 34 35 36 37 38 39 40 41 42 43 44 45 46 47
000
ASUS43 KJKL 010310
RWRJKL

EAST KENTUCKY HOURLY WEATHER ROUNDUP
NATIONAL WEATHER SERVICE JACKSON KY
1000 PM EST SAT FEB 28 2015

NOTE: "FAIR" INDICATES FEW OR NO CLOUDS BELOW 12,000 FEET WITH
NO SIGNIFICANT WEATHER AND/OR OBSTRUCTIONS TO VISIBILITY.

* THESE REPORTS ARE NOT UNDER NWS QUALITY CONTROL AND MAY NOT
  REPORT WEATHER SUCH AS PRECIPITATION AND FOG.

KYZ079-080-083-085-087-088-110-112-115-119-120-010400
...EASTERN KENTUCKY...

CITY           SKY/WX    TMP DP  RH WIND       PRES   REMARKS
JACKSON        MOCLDY    36  17  46 E6        30.45F WCI  31
LONDON         MOCLDY    39  18  42 CALM      30.45F
SOMERSET*      CLOUDY    37  21  52 CALM      30.46S
MONTICELLO*    PTCLDY    34  27  76 CALM      30.47S
MIDDLESBORO*   CLOUDY    32  29  88 CALM      30.47F
HAZARD APT*    CLOUDY    36  21  55 CALM      30.46F
BLACK MTN*       N/A     32  23  69 S3          N/A
PIKEVILLE APT* CLEAR     36  19  51 E5        30.46F WCI  32
BIG SANDY*     MOCLDY    35  19  52 E3        30.48S
MOREHEAD APT*  CLOUDY    34  12  40 E5        30.49S WCI  30
$$

KYZ035-036-041-042-044-050-067-078-099-010400
...CENTRAL KENTUCKY...

CITY           SKY/WX    TMP DP  RH WIND       PRES   REMARKS
MT STERLING*   CLOUDY    34  19  55 SE5       30.48R WCI  30
FLEMING/MASON* CLOUDY    30  18  59 E7        30.49F WCI  23
DANVILLE*      CLOUDY    34  21  60 CALM      30.47R
RICHMOND*      CLOUDY    36  19  51 E3        30.45S
LEXINGTON      CLOUDY    34  20  56 E5        30.47R WCI  30
FRANKFORT        N/A     32  17  54 N5        30.48R WCI  27
$$

KYZ091>093-OHZ055-061-077-WVZ005-015-034-035-042-010400
...SOUTHERN OHIO/WEST VIRGINIA...

CITY           SKY/WX    TMP DP  RH WIND       PRES   REMARKS
COVINGTON      CLOUDY    27  13  55 NE5       30.50R WCI  22
COLUMBUS       CLOUDY    25   5  42 E6        30.52F WCI  18
DAYTON         CLOUDY    24   9  52 E3        30.53R
WILMINGTON     CLOUDY    22  11  62 E5        30.50S WCI  16
HUNTINGTON     CLOUDY    32  14  47 E6        30.49F WCI  26
CHARLESTON     PTCLDY    31  17  56 CALM      30.49F
PINEVILLE*     PTCLDY    34  28  76 MISG      30.53F
BECKLEY        CLEAR     31  15  52 SE9       30.48F WCI  23
BLUEFIELD      PTCLDY    31  16  54 SE12G21   30.49F WCI  22
$$

VAZ002-007-008-TNZ017-027-036-066-071-010400
...SOUTHWEST VIRGINIA/EAST TENNESSEE...

CITY           SKY/WX    TMP DP  RH WIND       PRES   REMARKS
WISE*          CLOUDY    37  21  52 SE8       30.44F WCI  31
JONESVILLE*    CLOUDY    32  27  80 CALM      30.49S
ABINGDON*      CLOUDY    37  23  58 E12       30.49S WCI  29
BRISTOL        CLOUDY    37  25  61 CALM      30.50R
KNOXVILLE      CLOUDY    40  27  59 CALM      30.47F
OAK RIDGE      MOCLDY    39  27  62 CALM      30.48F
CROSSVILLE     MOCLDY    40  27  59 S6        30.44R
NASHVILLE      CLOUDY    42  26  53 SE7       30.39F
$$

...KEY TO REMARKS...
VSB - VISIBILITY IN MILES
WCI - WIND CHILL INDEX
HX  - HEAT INDEX

$$



USA.gov is the U.S. government's official web portal to all federal, state and local government web resources and services.